Location: Home
(42.5358°N, 72.7383°W)
Time: 19:30:53
(UTC-05:00)

Transit 4A - Pass Details

Date: 05 December 2021
Orbit: 863 x 981 km, 66.8° (Epoch: 23 January)

Event Time Altitude Azimuth Distance (km) Brightness Sun altitude
Rises 01:44:20 0° 336° (NNW) 3,597 - -57.5°
Reaches altitude 10° 01:47:48 10° 355° (N) 2,673 - -56.9°
Maximum altitude 01:51:55 18° 37° (NE) 2,173 - -56.3°
Drops below altitude 10° 01:56:05 10° 78° (ENE) 2,710 - -55.6°
Exits shadow 01:58:38 - 93° (E) 3,381 11.2 -55.2°
Sets 01:59:36 0° 97° (E) 3,667 11.5 -55.0°
